Theta_e
303 303 303 303 304 304 305 307 308 315 316 312 311 313 314 316 317 317 317 316 316 315 314 314 313 315 317 318 325 322 322 320 320 323 325 326 327 325 320 321 322 318 318 318 317 317 314
304 304 304 304 304 304 304 305 307 309 316 316 312 312 313 315 316 317 317 317 316 316 315 314 313 315 318 319 325 323 322 321 320 322 325 326 325 326 321 318 318 316 315 315 316 315 313
304 304 305 304 304 304 304 305 305 307 311 316 315 311 312 313 315 317 317 317 317 316 315 314 313 315 317 319 325 324 324 322 320 321 323 324 324 324 321 317 318 317 315 314 315 314 311
304 305 304 305 305 304 304 304 305 305 307 310 315 314 310 312 314 316 317 318 317 316 316 314 313 315 316 319 322 322 319 318 320 321 322 323 325 324 321 320 320 318 316 318 315 315 314
305 304 305 304 305 305 305 305 304 305 306 306 310 314 312 311 313 315 317 318 318 317 316 314 313 316 317 321 322 320 319 319 320 321 322 323 324 320 321 319 318 319 320 319 317 315 314
304 305 304 304 304 305 305 305 305 305 305 306 307 311 315 310 312 314 317 318 317 316 314 314 315 317 316 320 321 319 319 319 321 322 323 324 323 317 317 319 323 322 322 319 317 315 314
305 304 304 304 304 304 305 305 305 305 305 305 306 308 314 313 311 314 317 317 319 320 318 315 315 317 319 319 318 319 319 320 321 322 320 318 320 320 321 320 321 321 322 321 317 316 316
305 304 304 303 303 304 304 304 306 305 305 305 306 306 311 316 311 314 315 318 319 317 318 319 316 316 317 319 318 319 319 321 321 319 319 318 320 319 319 318 317 319 321 319 316 316 317
304 304 304 304 304 304 303 303 304 305 305 305 306 306 309 316 311 314 314 319 319 318 316 317 319 316 318 318 318 319 319 320 319 320 320 320 319 314 315 317 318 316 318 317 318 316 314
305 305 305 305 305 305 304 303 303 304 305 305 306 306 310 316 311 315 315 319 320 318 311 314 320 318 318 319 317 318 318 320 318 319 316 318 316 314 314 316 315 318 315 315 315 316 316
305 305 305 305 306 307 307 305 305 304 304 305 307 306 311 315 314 315 316 318 319 319 313 314 318 317 319 318 317 316 318 319 318 317 317 318 316 315 315 315 314 314 312 314 314 312 312
305 306 306 307 307 308 308 305 305 305 304 306 308 307 312 317 312 316 317 318 318 311 313 316 316 315 315 316 315 315 317 319 318 314 313 314 314 315 314 312 313 310 311 309 308 307 309
305 306 308 309 309 309 310 308 306 305 305 308 309 307 314 317 312 315 318 317 310 312 313 315 314 314 315 315 314 314 315 316 316 317 316 314 313 313 313 312 312 310 309 311 312 311 309
304 307 310 310 309 309 309 308 307 307 308 309 309 309 315 318 313 315 317 313 310 311 312 315 314 314 315 315 315 312 314 314 313 314 313 315 317 313 313 313 312 311 311 311 313 312 312
304 307 309 310 309 309 309 308 308 309 309 310 308 310 319 318 314 316 318 313 311 310 312 314 315 315 315 316 315 313 312 313 312 312 317 315 316 311 312 311 312 311 311 310 310 310 309
304 308 310 311 310 309 309 309 310 310 310 310 308 314 316 320 314 315 315 315 313 313 315 314 315 314 314 315 314 312 312 313 313 312 313 314 314 312 311 310 309 311 310 311 310 313 312
304 307 311 310 310 310 309 309 310 311 310 308 313 316 316 319 314 315 315 315 314 315 315 315 315 315 315 314 313 313 314 312 311 311 312 311 312 311 310 309 308 309 309 309 310 310 311
304 306 310 311 310 310 310 311 311 311 309 309 314 311 315 317 313 310 313 316 314 313 316 314 314 314 315 314 314 314 313 312 311 313 312 312 310 309 310 310 308 309 308 310 309 310 309
304 306 309 311 311 311 310 310 310 310 309 309 313 314 315 314 311 309 311 312 315 314 313 313 313 312 313 314 315 314 312 312 313 311 312 311 311 311 312 311 311 309 308 310 309 308 310
303 305 307 310 311 310 309 311 310 309 309 312 313 310 315 315 311 309 311 312 313 313 314 314 313 314 315 315 312 313 311 311 310 310 311 313 311 312 314 313 311 310 308 309 309 308 308
303 304 306 308 310 310 308 310 311 310 311 312 313 312 313 316 314 309 309 311 312 313 313 314 313 314 313 315 314 312 311 310 309 311 312 311 313 313 313 313 312 311 310 307 308 308 309
302 304 305 307 308 309 308 310 310 311 313 312 312 312 309 309 313 310 309 310 313 313 312 313 313 313 313 315 315 315 310 310 310 309 312 310 312 312 314 313 312 313 312 309 309 308 307
301 302 304 306 308 308 309 309 309 310 312 312 311 311 310 305 308 309 309 310 311 313 313 314 315 317 317 316 314 314 313 311 310 309 310 311 310 310 313 313 311 312 312 310 310 308 308
301 301 303 305 307 308 309 309 309 308 311 312 311 312 312 309 306 310 311 311 311 312 313 315 316 315 313 313 313 313 312 311 312 311 311 310 309 308 311 310 308 311 310 310 309 308 307
303 301 302 303 306 308 309 309 309 308 308 311 311 311 312 311 309 309 309 311 311 312 312 313 314 315 314 315 314 312 312 313 312 311 311 310 309 309 310 310 310 311 308 307 308 308 307
304 302 301 302 304 306 308 309 309 309 308 308 311 312 311 311 306 309 308 309 308 308 309 312 313 315 313 310 311 315 315 313 314 312 310 310 309 311 306 310 313 312 307 307 308 308 306
302 304 301 301 302 304 306 307 307 307 308 308 308 311 312 311 310 310 308 308 310 310 308 311 313 314 314 311 311 312 315 314 314 313 312 312 311 311 309 310 310 309 307 308 311 310 307
296 302 304 301 300 303 305 306 306 307 308 308 307 308 309 311 311 311 311 310 310 309 308 311 311 312 311 313 313 309 313 314 313 312 312 312 313 312 311 311 311 310 309 310 309 307 308
297 297 302 303 301 301 303 305 305 307 308 307 308 308 309 310 310 311 311 311 310 310 308 310 311 312 315 313 311 310 311 310 313 313 311 313 312 312 312 311 309 310 309 309 309 309 308
Wind_Speed
17 14 14 15 15 16 15 17 19 16 14 14 14 13 12 12 12 12 12 11 10 10 12 13 12 8 3 3 4 3 7 11 8 6 7 6 16 9 6 8 16 10 6 13 24 23 17
17 17 15 14 15 15 16 16 18 18 16 15 15 15 13 12 13 13 13 13 11 10 11 12 12 9 4 3 3 4 6 9 6 6 12 6 8 24 17 9 8 17 23 19 20 15 18
16 17 16 14 14 15 16 17 17 17 17 16 15 15 14 13 14 13 14 13 13 11 11 11 11 10 7 9 5 6 8 8 4 4 8 6 6 2 12 8 18 26 14 10 8 7 7
15 16 16 15 15 15 17 17 17 17 17 17 17 15 16 14 14 15 14 14 13 12 11 10 9 9 7 6 8 7 5 4 2 2 4 4 12 17 10 29 7 6 5 5 4 7 14
17 15 16 15 13 15 16 17 17 18 17 16 17 16 15 15 14 15 14 14 13 13 9 9 8 6 6 4 5 4 5 3 5 2 5 11 6 14 14 11 5 2 4 3 3 13 6
18 17 16 16 15 14 15 17 17 17 18 16 16 17 15 15 14 14 14 12 9 10 7 5 7 4 5 2 3 2 4 4 2 5 7 6 7 4 2 4 5 7 4 4 8 10 6
15 17 17 17 16 16 17 16 16 17 18 17 15 15 14 14 13 11 11 5 3 3 5 5 2 5 4 2 3 3 3 2 2 3 3 3 5 7 16 6 3 6 5 7 4 6 7
10 13 15 16 15 16 17 17 17 17 17 17 15 14 14 12 11 8 8 4 7 4 9 8 15 16 13 10 3 5 3 3 3 3 1 5 4 8 7 3 4 3 4 3 3 3 8
11 11 13 14 14 13 15 17 16 17 16 17 15 13 13 10 10 7 2 3 3 4 4 8 11 14 11 5 3 4 3 3 3 4 2 5 1 9 6 3 4 2 4 4 4 4 3
12 12 12 13 13 12 13 16 15 16 16 16 15 12 12 9 7 7 3 2 2 2 4 6 6 8 13 5 4 9 5 3 3 5 6 3 3 5 5 3 5 3 5 6 8 5 3
12 13 13 13 13 12 13 16 16 16 16 15 15 13 12 9 3 3 3 4 2 1 2 3 3 3 10 8 1 3 7 4 6 5 4 4 4 5 3 3 3 2 5 5 3 4 2
12 12 12 12 12 12 11 15 15 15 17 16 16 15 13 11 10 5 3 3 2 5 6 4 2 3 5 3 2 3 2 3 5 5 5 2 2 2 4 4 3 7 6 8 5 3 2
12 11 10 10 11 12 12 13 15 15 16 16 17 17 15 12 8 9 4 3 4 4 2 3 4 3 3 4 3 3 3 3 5 5 2 3 2 2 5 6 4 6 6 2 3 2 6
12 10 9 8 8 11 12 13 14 13 14 16 16 17 17 15 10 8 6 4 4 4 6 1 4 3 7 5 3 3 3 3 1 4 4 5 2 6 2 3 6 4 6 5 5 3 4
12 11 9 8 9 11 12 12 12 13 14 15 15 15 15 15 13 8 7 3 8 6 4 3 3 4 2 2 4 4 6 5 6 6 6 5 3 2 1 2 5 4 3 4 5 2 2
13 11 10 9 11 12 12 12 13 13 13 13 14 11 15 12 13 8 2 4 4 3 6 5 6 3 8 5 6 7 7 3 5 7 2 6 3 1 0 3 4 2 5 3 3 2 4
14 13 12 12 13 14 13 14 15 14 13 13 13 5 3 13 11 6 3 4 4 2 9 3 3 2 5 6 7 5 4 1 3 4 5 4 4 2 2 4 7 2 1 5 4 4 4
17 15 14 14 15 15 14 14 14 14 14 16 11 0 5 17 6 1 3 2 6 5 9 5 4 3 3 5 7 6 10 4 4 9 7 2 5 3 3 2 3 3 5 6 4 4 1
19 17 17 17 16 16 15 13 16 16 16 20 6 2 5 21 4 1 2 1 3 5 4 6 5 7 4 4 4 4 4 2 3 5 8 7 1 3 5 5 2 4 4 4 5 3 6
21 18 19 19 19 18 17 13 13 16 18 21 7 1 2 10 1 5 3 2 2 4 6 5 6 7 4 6 4 3 2 1 1 2 6 6 3 6 7 5 4 5 5 5 6 4 5
24 20 20 21 22 21 19 17 14 16 20 21 6 3 4 4 4 2 5 5 6 3 4 4 2 2 5 6 5 1 3 1 2 6 3 5 5 3 2 2 2 3 5 7 6 4 5
25 23 21 20 22 21 21 18 16 15 23 21 5 2 3 2 7 8 4 5 5 1 4 7 7 4 4 7 7 11 5 5 6 3 2 3 3 3 2 4 5 2 3 5 2 3 5
26 25 22 21 21 23 23 20 18 18 23 15 11 5 1 2 3 5 5 6 6 3 9 6 4 1 3 6 8 17 16 5 3 7 6 6 7 4 3 2 4 5 6 6 4 3 4
27 27 25 22 22 23 23 21 19 18 22 20 20 5 2 2 3 5 4 13 7 5 4 8 3 1 5 8 9 12 14 16 15 9 2 6 5 3 3 2 1 4 3 1 4 3 2
29 28 27 25 24 25 24 22 21 19 19 20 14 12 6 1 1 3 2 4 9 18 19 13 19 10 11 8 2 6 4 6 5 6 6 2 5 4 4 4 4 1 4 5 5 4 5
31 30 29 28 26 25 26 24 22 19 18 19 18 13 10 3 2 1 2 3 4 4 3 11 22 15 12 5 3 5 4 4 4 6 3 6 6 4 2 5 6 4 3 7 5 4 7
31 32 31 30 28 26 25 25 23 21 19 18 17 21 8 4 6 3 3 1 3 4 2 1 6 9 11 2 1 3 4 3 3 2 3 2 4 4 2 2 6 4 7 6 4 5 10
27 33 34 32 30 28 26 25 22 21 22 18 16 14 18 5 7 8 8 6 9 3 3 2 3 2 3 1 4 4 3 6 3 2 1 3 2 3 3 1 5 9 5 6 4 7 11
26 30 35 34 33 30 28 26 23 21 21 19 14 16 14 11 4 9 20 21 16 14 10 4 5 5 12 3 2 3 2 1 6 2 2 4 5 2 5 5 2 14 3 7 13 13 13
Wind_Direction
261 253 247 250 250 250 250 246 247 250 257 264 266 268 274 279 287 292 299 303 310 318 322 324 328 331 281 253 264 308 354 4 359 16 29 97 121 99 88 106 72 81 92 82 124 124 107
258 258 249 243 248 251 250 252 249 248 251 261 266 268 271 277 282 288 295 299 302 311 315 317 322 323 299 261 255 291 324 351 3 39 34 163 127 113 85 50 53 103 96 101 113 105 123
257 257 256 247 245 249 253 248 253 251 249 255 265 269 271 276 280 285 291 297 297 300 303 306 312 314 278 236 239 292 296 328 358 35 88 73 72 209 108 99 110 106 92 70 92 114 110
259 258 256 251 246 246 250 252 248 254 253 252 260 267 272 275 280 286 291 296 295 293 291 296 298 300 263 229 242 294 290 313 267 11 107 54 126 101 104 116 77 90 65 108 243 166 168
254 253 256 255 249 249 249 251 251 251 257 255 256 263 271 276 281 289 293 296 299 286 282 285 282 274 272 247 236 292 320 323 217 172 123 135 107 101 116 104 70 344 149 152 173 211 143
251 251 254 255 253 252 251 249 250 251 255 259 257 260 270 275 282 294 303 301 300 284 267 270 249 278 259 192 214 259 300 300 161 160 129 132 95 100 59 98 177 180 178 178 185 205 189
249 252 253 254 253 251 251 248 250 249 252 255 260 258 265 277 284 305 320 335 287 265 258 245 238 254 290 316 226 219 254 222 156 121 109 52 100 174 184 176 128 139 154 178 205 201 153
256 256 256 258 253 251 249 246 245 248 246 250 253 257 260 274 282 302 345 55 50 315 311 255 249 258 257 302 289 228 232 184 134 134 75 33 185 216 154 113 87 107 134 183 89 125 178
266 257 257 259 259 252 245 244 239 244 245 242 246 252 253 267 277 291 326 98 43 330 267 285 234 241 236 236 248 238 205 153 117 124 149 148 251 135 129 116 116 158 181 175 148 127 84
267 270 266 262 260 251 240 239 236 236 240 236 236 242 244 258 276 265 233 236 136 347 39 273 224 226 214 214 264 218 201 179 59 157 142 142 127 128 110 150 134 191 174 126 127 113 218
263 268 269 265 259 253 236 231 234 229 232 227 223 227 230 226 226 229 237 226 185 164 354 263 210 200 182 169 153 177 184 176 157 141 119 222 133 122 116 184 155 116 89 113 123 102 88
259 267 263 259 252 247 233 223 223 223 221 217 214 214 216 223 225 232 236 220 217 50 244 323 208 160 113 158 163 118 167 137 117 91 45 78 71 94 134 66 82 146 63 39 49 80 315
253 262 261 257 242 234 228 216 213 217 212 212 210 209 206 209 208 229 194 180 49 163 274 234 204 165 148 159 175 146 169 166 155 111 150 34 346 352 122 86 48 73 76 333 342 353 229
246 253 256 246 227 215 210 201 202 204 201 205 209 209 205 203 193 210 192 63 203 221 228 270 128 66 177 159 200 144 125 195 268 90 122 150 258 168 174 166 171 165 156 162 226 212 263
235 240 244 224 204 192 189 190 192 193 196 199 204 207 221 194 195 201 187 170 201 202 262 213 80 127 233 230 158 134 184 207 212 176 147 147 249 46 84 128 130 182 187 178 107 34 44
224 227 224 206 194 189 183 184 185 188 194 194 194 197 225 197 200 204 133 232 210 294 338 345 205 162 183 205 164 166 179 204 195 184 148 196 100 19 81 93 38 157 154 76 15 228 265
214 214 213 199 191 189 183 183 186 187 187 186 177 184 241 195 190 200 197 223 279 309 6 327 315 277 217 183 177 192 203 208 170 121 101 136 105 265 121 203 180 120 143 56 115 137 189
207 207 205 196 190 188 189 187 187 186 177 173 177 163 192 179 160 191 161 199 345 343 18 336 338 321 247 205 180 209 205 225 171 149 151 140 118 150 208 284 200 186 182 150 134 211 107
202 202 202 200 193 188 185 190 191 187 180 167 174 225 192 180 179 179 246 338 322 342 6 18 339 49 327 297 293 188 163 6 199 163 161 182 89 85 357 348 323 210 183 121 108 96 187
203 201 201 201 200 192 188 184 185 189 180 164 167 163 156 202 135 151 117 219 274 323 283 236 256 302 345 350 23 276 156 344 136 133 145 121 120 159 193 204 154 190 172 157 132 137 177
202 201 201 202 203 197 193 187 182 187 183 174 193 211 161 179 207 160 168 194 175 226 261 247 301 157 23 323 319 298 315 234 38 154 99 126 151 132 38 341 177 177 167 172 186 169 170
202 201 202 200 201 199 197 191 187 184 183 191 176 149 175 128 195 154 168 208 216 184 218 280 284 287 274 237 219 271 197 235 193 172 119 13 153 106 40 1 24 283 243 188 186 169 259
205 202 201 200 198 193 194 190 191 188 185 195 204 188 183 20 104 119 214 199 204 206 289 249 296 270 270 269 292 278 237 219 219 155 150 133 137 118 208 352 12 316 233 185 168 145 151
208 204 202 200 196 194 195 193 194 194 192 202 200 193 140 261 172 199 212 201 219 250 234 306 352 19 141 105 99 60 69 75 65 30 125 129 103 79 144 71 67 239 299 118 130 149 173
209 206 203 201 200 194 198 200 200 196 200 199 191 201 216 136 168 316 298 216 226 237 249 261 287 304 191 336 8 22 333 359 14 29 7 95 121 94 138 183 289 153 189 147 159 249 187
210 207 205 203 202 202 200 204 206 200 203 208 210 194 213 155 231 36 322 232 181 209 303 245 252 271 211 84 358 118 285 319 320 329 22 65 69 109 116 137 193 225 175 142 117 287 184
210 208 206 205 204 203 203 206 211 209 208 210 215 209 213 194 182 80 82 290 331 226 201 230 186 175 190 220 117 162 188 178 294 244 302 18 48 109 124 148 287 224 156 144 98 246 169
209 209 207 206 204 204 203 204 209 209 209 211 216 212 213 216 222 257 266 318 296 303 179 304 114 275 93 146 137 240 136 170 193 217 242 258 120 145 74 100 276 161 97 150 195 133 161
212 209 207 206 205 203 203 204 205 202 205 208 207 209 202 221 264 247 260 253 292 279 273 262 274 209 195 112 110 233 118 166 142 263 66 250 167 223 192 214 205 170 136 161 156 154 172